Change the Weather History Date:

Sunday, March 30, 2014

  Actual Average (KTIK) Record (KTIK)
Temperature  
Mean Temperature 64 °F -  
Max Temperature 80 °F 64 °F 81 °F (2013)
Min Temperature 48 °F 44 °F 30 °F (2003)
Degree Days  
Heating Degree Days 1    
Growing Degree Days 14 (Base 50)    
Moisture  
Dew Point 41 °F    
Average Humidity 44    
Maximum Humidity 62    
Minimum Humidity 24    
Precipitation  
Precipitation 0.00 in - - ()
Sea Level Pressure  
Sea Level Pressure 30.07 in    
Wind  
Wind Speed 10 mph (South)    
Max Wind Speed 18 mph    
Max Gust Speed 26 mph    
Visibility 10 miles    
Events      
Averages and records for this station are not official NWS values.
T = Trace of Precipitation, MM = Missing Value Source: NWS Daily Summary

Daily Weather History Graph

Daily Weather History Graph

Search for Another Location

Airport or City:

Trip Planner

Search our weather history database for the weather conditions in past years. The results will help you decide how hot, cold, wet, or windy it might be!

Date:

Astronomy

Mar. 30, 2014 Rise Set
Actual Time 7:17 AM CDT 7:47 PM CDT
Civil Twilight 6:51 AM CDT 8:13 PM CDT
Nautical Twilight 6:21 AM CDT 8:43 PM CDT
Astronomical Twilight 5:51 AM CDT 9:14 PM CDT
Moon 7:03 AM CDT (3/30) 8:00 PM CDT (3/30)
Length of Visible Light 13h 21m
Length of Day
12h 30m
Waning Crescent, 0% of the Moon is Illuminated
Mar 30
Waning Crescent
Mar 30
New
Apr 7
First Quarter
Apr 15
Full
Apr 22
Last Quarter

Hourly Weather History & Observations

Time (CDT) Temp. Dew Point Humidity Pressure Visibility Wind Dir Wind Speed Gust Speed Precip Events Conditions
12:15 AM 53.6 °F 37.4 °F 54% 30.23 in 10.0 mi SE 5.8 mph - N/A   Clear
12:35 AM 51.8 °F 37.4 °F 58% 30.23 in 10.0 mi SE 4.6 mph - N/A   Clear
12:55 AM 51.8 °F 37.4 °F 58% 30.23 in 10.0 mi SE 4.6 mph - N/A   Clear
1:15 AM 51.8 °F 37.4 °F 58% 30.23 in 10.0 mi SSE 4.6 mph - N/A   Clear
1:35 AM 51.8 °F 37.4 °F 58% 30.23 in 10.0 mi SSE 4.6 mph - N/A   Clear
1:55 AM 51.8 °F 37.4 °F 58% 30.23 in 10.0 mi South 5.8 mph - N/A   Clear
2:15 AM 51.8 °F 37.4 °F 58% 30.22 in 10.0 mi SSE 5.8 mph - N/A   Clear
2:35 AM 51.8 °F 37.4 °F 58% 30.21 in 10.0 mi SSE 6.9 mph - N/A   Clear
2:55 AM 51.8 °F 37.4 °F 58% 30.20 in 10.0 mi SSE 6.9 mph - N/A   Clear
3:15 AM 51.8 °F 37.4 °F 58% 30.19 in 10.0 mi SSE 8.1 mph - N/A   Clear
3:35 AM 51.8 °F 37.4 °F 58% 30.18 in 10.0 mi SSE 6.9 mph - N/A   Clear
3:55 AM 51.8 °F 37.4 °F 58% 30.17 in 10.0 mi SSE 6.9 mph - N/A   Clear
4:15 AM 51.8 °F 37.4 °F 58% 30.16 in 10.0 mi SSE 8.1 mph - N/A   Clear
4:35 AM 51.8 °F 37.4 °F 58% 30.16 in 10.0 mi SSE 6.9 mph - N/A   Clear
4:55 AM 51.8 °F 37.4 °F 58% 30.15 in 10.0 mi SSE 8.1 mph - N/A   Clear
5:15 AM 51.8 °F 37.4 °F 58% 30.15 in 10.0 mi SSE 8.1 mph - N/A   Clear
5:35 AM 51.8 °F 37.4 °F 58% 30.15 in 10.0 mi SSE 8.1 mph - N/A   Clear
5:55 AM 51.8 °F 37.4 °F 58% 30.14 in 10.0 mi South 9.2 mph - N/A   Clear
6:15 AM 51.8 °F 37.4 °F 58% 30.14 in 10.0 mi South 8.1 mph - N/A   Clear
6:35 AM 51.8 °F 37.4 °F 58% 30.15 in 10.0 mi South 9.2 mph - N/A   Clear
6:55 AM 51.8 °F 37.4 °F 58% 30.15 in 10.0 mi South 6.9 mph - N/A   Clear
7:15 AM 51.8 °F 37.4 °F 58% 30.15 in 10.0 mi South 6.9 mph - N/A   Clear
7:35 AM 48.2 °F 35.6 °F 62% 30.16 in 10.0 mi South 8.1 mph - N/A   Clear
7:55 AM 51.8 °F 39.2 °F 62% 30.16 in 10.0 mi South 8.1 mph - N/A   Clear
8:15 AM 51.8 °F 37.4 °F 58% 30.16 in 10.0 mi South 9.2 mph - N/A   Clear
8:35 AM 51.8 °F 37.4 °F 58% 30.17 in 10.0 mi South 9.2 mph - N/A   Clear
8:55 AM 51.8 °F 37.4 °F 58% 30.17 in 10.0 mi South 10.4 mph - N/A   Clear
9:15 AM 55.4 °F 41.0 °F 58% 30.17 in 10.0 mi South 11.5 mph - N/A   Clear
9:35 AM 57.2 °F 39.2 °F 51% 30.17 in 10.0 mi South 10.4 mph - N/A   Clear
9:55 AM 59.0 °F 41.0 °F 51% 30.17 in 10.0 mi South 9.2 mph - N/A   Clear
10:15 AM 60.8 °F 41.0 °F 48% 30.17 in 10.0 mi South 9.2 mph 16.1 mph N/A   Clear
10:35 AM 62.6 °F 41.0 °F 45% 30.16 in 10.0 mi South 10.4 mph 19.6 mph N/A   Clear
10:55 AM 66.2 °F 39.2 °F 37% 30.16 in 10.0 mi South 17.3 mph 21.9 mph N/A   Clear
11:15 AM 68.0 °F 39.2 °F 35% 30.14 in 10.0 mi South 15.0 mph - N/A   Clear
11:35 AM 69.8 °F 41.0 °F 35% 30.13 in 10.0 mi South 16.1 mph 20.7 mph N/A   Clear
11:55 AM 71.6 °F 41.0 °F 33% 30.12 in 10.0 mi South 16.1 mph - N/A   Clear
12:15 PM 71.6 °F 41.0 °F 33% 30.12 in 10.0 mi South 11.5 mph 17.3 mph N/A   Clear
12:35 PM 73.4 °F 41.0 °F 31% 30.10 in 10.0 mi South 15.0 mph - N/A   Clear
12:55 PM 77.0 °F 42.8 °F 29% 30.09 in 10.0 mi South 16.1 mph - N/A   Clear
1:15 PM 77.0 °F 41.0 °F 28% 30.08 in 10.0 mi South 17.3 mph 24.2 mph N/A   Clear
1:35 PM 77.0 °F 41.0 °F 28% 30.06 in 10.0 mi South 16.1 mph 23.0 mph N/A   Clear
1:55 PM 77.0 °F 41.0 °F 28% 30.05 in 10.0 mi South 16.1 mph 23.0 mph N/A   Clear
2:15 PM 78.8 °F 42.8 °F 28% 30.04 in 10.0 mi South 15.0 mph - N/A   Clear
2:35 PM 78.8 °F 41.0 °F 26% 30.03 in 10.0 mi South 16.1 mph 19.6 mph N/A   Clear
2:55 PM 78.8 °F 41.0 °F 26% 30.01 in 10.0 mi South 15.0 mph 24.2 mph N/A   Clear
3:15 PM 80.6 °F 41.0 °F 24% 29.99 in 10.0 mi South 17.3 mph 21.9 mph N/A   Clear
3:35 PM 80.6 °F 42.8 °F 26% 29.98 in 10.0 mi South 15.0 mph 21.9 mph N/A   Clear
3:55 PM 80.6 °F 42.8 °F 26% 29.98 in 10.0 mi South 13.8 mph 21.9 mph N/A   Clear
4:15 PM 80.6 °F 42.8 °F 26% 29.97 in 10.0 mi South 16.1 mph 24.2 mph N/A   Clear
4:35 PM 78.8 °F 42.8 °F 28% 29.96 in 10.0 mi South 13.8 mph 20.7 mph N/A   Clear
4:55 PM 78.8 °F 42.8 °F 28% 29.95 in 10.0 mi South 12.7 mph 20.7 mph N/A   Clear
5:15 PM 80.6 °F 44.6 °F 28% 29.94 in 10.0 mi South 18.4 mph 26.5 mph N/A   Clear
5:35 PM 80.6 °F 44.6 °F 28% 29.93 in 10.0 mi South 16.1 mph 21.9 mph N/A   Clear
5:55 PM 78.8 °F 42.8 °F 28% 29.93 in 10.0 mi South 17.3 mph 23.0 mph N/A   Clear
6:15 PM 78.8 °F 44.6 °F 30% 29.92 in 10.0 mi South 17.3 mph 21.9 mph N/A   Clear
6:35 PM 77.0 °F 44.6 °F 32% 29.92 in 10.0 mi South 17.3 mph 20.7 mph N/A   Clear
6:55 PM 77.0 °F 44.6 °F 32% 29.91 in 10.0 mi South 17.3 mph 21.9 mph N/A   Clear
7:15 PM 77.0 °F 44.6 °F 32% 29.91 in 10.0 mi SSE 15.0 mph 21.9 mph N/A   Clear
7:35 PM 73.4 °F 44.6 °F 36% 29.91 in 10.0 mi South 11.5 mph 25.3 mph N/A   Clear
7:55 PM 71.6 °F 44.6 °F 38% 29.91 in 10.0 mi South 12.7 mph 20.7 mph N/A   Clear
8:15 PM 71.6 °F 44.6 °F 38% 29.91 in 10.0 mi South 13.8 mph 19.6 mph N/A   Scattered Clouds
8:35 PM 71.6 °F 44.6 °F 38% 29.90 in 10.0 mi South 12.7 mph 20.7 mph N/A   Scattered Clouds
8:55 PM 71.6 °F 44.6 °F 38% 29.90 in 10.0 mi SSE 13.8 mph 18.4 mph N/A   Scattered Clouds
9:15 PM 69.8 °F 44.6 °F 40% 29.90 in 10.0 mi SSE 12.7 mph 23.0 mph N/A   Scattered Clouds
9:35 PM 68.0 °F 44.6 °F 43% 29.90 in 10.0 mi South 16.1 mph 20.7 mph N/A   Clear
9:55 PM 68.0 °F 44.6 °F 43% 29.90 in 10.0 mi South 16.1 mph 21.9 mph N/A   Scattered Clouds
10:15 PM 68.0 °F 44.6 °F 43% 29.89 in 10.0 mi South 17.3 mph 21.9 mph N/A   Scattered Clouds
10:35 PM 68.0 °F 44.6 °F 43% 29.89 in 10.0 mi SSE 17.3 mph - N/A   Scattered Clouds
10:55 PM 68.0 °F 44.6 °F 43% 29.89 in 10.0 mi South 16.1 mph 24.2 mph N/A   Scattered Clouds
11:15 PM 68.0 °F 44.6 °F 43% 29.90 in 10.0 mi South 15.0 mph 21.9 mph N/A   Clear
11:35 PM 68.0 °F 44.6 °F 43% 29.89 in 10.0 mi South 17.3 mph 21.9 mph N/A   Scattered Clouds
11:55 PM 66.2 °F 46.4 °F 49% 29.89 in 10.0 mi South 15.0 mph 24.2 mph N/A   Clear